Regional Weather Roundup
Issued by NWS State College, PA

Current Version | Previous Version | Text Only | Print | Product List | Glossary On
Versions: 1 2 3 4 5 6 7 8 9 10 11 12 13 14 15 16 17 18 19 20 21 22 23 24 25 26 27 28 29 30 31 32 33 34 35 36 37 38 39 40 41 42 43 44 45 46 47 48 49 50
000
ASUS41 KCTP 210510
RWRCTP

REGIONAL WEATHER ROUNDUP
NATIONAL WEATHER SERVICE STATE COLLEGE PA
100 AM EDT SUN OCT 21 2018

Note: "fair" indicates few or no clouds below 12,000 feet with no
significant weather and/or obstructions to visibility.

* = STATION THAT DOES NOT REPORT PRECIPITATION /E.G. RAIN...SNOW...ETC/
    THUNDER OR FOG.

PAZ002>004-007>009-013>016-020>023-029>032-210600-
WESTERN PENNSYLVANIA

CITY           SKY/WX    TMP DP  RH WIND       PRES   REMARKS
ERIE           MOCLDY    44  33  65 N18G29    29.92R
MEADVILLE      CLOUDY    38  35  89 NW14G22   29.88R
FRANKLIN*      LGT RAIN  36  34  92 NW9G22    29.86R
NEW CASTLE     LGT RAIN  40  36  86 NW14G24   29.92R
BEAVER COUNTY  NOT AVBL
BUTLER*        CLOUDY    37  36  93 VRB5      29.88R
PITTSBURGH INT CLOUDY    38  37  97 NW17      29.88R
PITTSBURGH     LGT RAIN  38  36  92 NW17G28   29.85R
INDIANA*       CLOUDY    39  39 100 NW13      29.82R
LATROBE        RAIN      41  37  87 W13G22    29.83R
WASHINGTON CO* LGT RAIN  37  35  92 NW17G26   29.94R
$$

PAZ004>006-010>012-017>019-024>028-033>037-041-042-045-046-049>053-210600-
CENTRAL PENNSYLVANIA

CITY           SKY/WX    TMP DP  RH WIND       PRES   REMARKS
BRADFORD       LGT SNOW  33  32  96 N15G22    29.76R FOG
DUBOIS         CLOUDY    39  35  86 NW14G26   29.74R
CLEARFIELD     LGT RAIN  41  38  89 W10       29.74R
JOHNSTOWN      CLOUDY    38  34  85 W12       29.75S
ALTOONA        CLOUDY    44  36  73 W14       29.75S
STATE COLLEGE  CLOUDY    42  37  83 W10       29.75R
WILLIAMSPORT   CLOUDY    44  41  89 NW5       29.71R
SELINSGROVE    CLOUDY    46  40  79 NW6       29.73R
FT INDIANTOWN  MOCLDY    47  40  76 SW8       29.71F
CAPITAL CITY   FAIR      49  40  71 W3        29.72F
HARRISBURG     CLOUDY    49  40  71 NW7       29.71F
YORK           MOCLDY    47  42  83 CALM      29.71F
$$

PAZ038>040-043-044-047-048-054-055-060>062-067>071-210600-
EASTERN PENNSYLVANIA

CITY           SKY/WX    TMP DP  RH WIND       PRES   REMARKS
SCRANTON       CLOUDY    42  39  89 N8        29.67R
MOUNT POCONO   CLOUDY    40  39  97 N9        29.62R
ALLENTOWN      MOCLDY    48  41  76 W9        29.67S
QUAKERTOWN*    MOCLDY    45  45 100 CALM      29.67F
READING        FAIR      48  44  86 W12       29.68S
LANCASTER      FAIR      47  45  93 W9        29.71S
COATESVILLE      N/A     46  43  87 W14       29.70S
POTTSTOWN      MOCLDY    45  45 100 VRB3      29.70S
BLUE BELL      MOCLDY    45  45 100 W3        29.69R
DOYLESTOWN     FAIR      46  42  86 W3        29.66S
WILLOW GROVE   NOT AVBL
NORTH PHILA    CLOUDY    51  42  71 W13       29.69R
PHILADELPHIA   CLOUDY    51  41  68 NW10      29.69R
$$



USA.gov is the U.S. government's official web portal to all federal, state and local government web resources and services.